Weather History for Eastman, GA

Change the Weather History Date:

Thursday, March 21, 2013

  Actual Average Record
Temperature  
Mean Temperature 49 °F -  
Max Temperature 60 °F 71 °F 77 °F (2014)
Min Temperature 38 °F 47 °F 38 °F (2013)
Degree Days  
Heating Degree Days 16    
Moisture  
Dew Point 24 °F    
Average Humidity 43    
Maximum Humidity 85    
Minimum Humidity 16    
Precipitation  
Precipitation 0.00 in - - ()
Sea Level Pressure  
Sea Level Pressure 29.96 in    
Wind  
Wind Speed 5 mph (WNW)    
Max Wind Speed 14 mph    
Max Gust Speed 23 mph    
Visibility 10 miles    
Events      
Averages and records for this station are not official NWS values.
T = Trace of Precipitation, MM = Missing Value Source: NWS Daily Summary

Daily Weather History Graph

Daily Weather History Graph

Search for Another Location

Airport:

Trip Planner

Search our weather history database for the weather conditions in past years. The results will help you decide how hot, cold, wet, or windy it might be!

Date:

Astronomy

Mar. 21, 2013 Rise Set
Actual Time 7:34 AM EDT 7:44 PM EDT
Civil Twilight 7:10 AM EDT 8:09 PM EDT
Nautical Twilight 6:41 AM EDT 8:37 PM EDT
Astronomical Twilight 6:12 AM EDT 9:06 PM EDT
Moon 2:30 PM EDT (3/21) 3:38 AM EDT (3/21)
Length of Visible Light 12h 59m
Length of Day
12h 10m
Waxing Gibbous, 68% of the Moon is Illuminated
Mar 21
Waxing Gibbous
Mar 27
Full
Apr 3
Last Quarter
Apr 10
New
Apr 18
First Quarter

Hourly Weather History & Observations

Time (EDT) Temp. Windchill Dew Point Humidity Pressure Visibility Wind Dir Wind Speed Gust Speed Precip Events Conditions
12:15 AM 47.5 °F - 31.6 °F 54% 29.94 in 10.0 mi West 3.5 mph - N/A   Clear
12:35 AM 47.3 °F - 31.3 °F 54% 29.94 in 10.0 mi West 4.6 mph - N/A   Clear
12:55 AM 48.9 °F - 29.3 °F 47% 29.94 in 10.0 mi WNW 4.6 mph - N/A   Clear
1:15 AM 48.6 °F - 28.9 °F 47% 29.94 in 10.0 mi WNW 3.5 mph - N/A   Clear
1:35 AM 47.3 °F - 29.3 °F 50% 29.94 in 10.0 mi Calm Calm - N/A   Clear
1:55 AM 46.9 °F - 29.8 °F 51% 29.94 in 10.0 mi NW 4.6 mph - N/A   Clear
2:15 AM 46.4 °F 43.5 °F 30.2 °F 53% 29.94 in 10.0 mi WNW 5.8 mph - N/A   Clear
2:35 AM 46.6 °F - 29.1 °F 51% 29.95 in 10.0 mi NW 5.8 mph - N/A   Clear
2:55 AM 45.9 °F 42.9 °F 29.3 °F 52% 29.94 in 10.0 mi WNW 5.8 mph - N/A   Clear
3:15 AM 45.9 °F 42.9 °F 28.9 °F 52% 29.94 in 10.0 mi WNW 5.8 mph - N/A   Clear
3:35 AM 45.3 °F 43.0 °F 28.9 °F 53% 29.94 in 10.0 mi WNW 4.6 mph - N/A   Clear
3:55 AM 44.8 °F 42.4 °F 29.1 °F 54% 29.94 in 10.0 mi WNW 4.6 mph - N/A   Clear
4:15 AM 44.8 °F 41.6 °F 28.9 °F 54% 29.94 in 10.0 mi WNW 5.8 mph - N/A   Clear
4:35 AM 44.2 °F 41.0 °F 29.1 °F 55% 29.94 in 10.0 mi WNW 5.8 mph - N/A   Clear
4:55 AM 43.2 °F 40.5 °F 29.1 °F 58% 29.95 in 10.0 mi NW 4.6 mph - N/A   Clear
5:15 AM 43.3 °F 41.7 °F 28.4 °F 56% 29.95 in 10.0 mi WNW 3.5 mph - N/A   Clear
5:55 AM 42.8 °F 41.1 °F 28.4 °F 57% 29.96 in 10.0 mi WNW 3.5 mph - N/A   Clear
6:15 AM 41.4 °F 38.4 °F 29.1 °F 62% 29.96 in 10.0 mi WNW 4.6 mph - N/A   Clear
6:35 AM 41.4 °F 39.4 °F 29.1 °F 62% 29.97 in 10.0 mi WNW 3.5 mph - N/A   Clear
6:55 AM 41.4 °F 38.4 °F 28.4 °F 60% 29.97 in 10.0 mi WNW 4.6 mph - N/A   Clear
7:15 AM 41.0 °F 39.0 °F 28.4 °F 61% 29.97 in 10.0 mi WNW 3.5 mph - N/A   Clear
7:35 AM 40.5 °F 38.4 °F 28.0 °F 61% 29.97 in 10.0 mi WNW 3.5 mph - N/A   Clear
7:55 AM 40.1 °F - 28.9 °F 64% 29.97 in 10.0 mi Calm Calm - N/A   Clear
8:15 AM 41.4 °F - 29.1 °F 62% 29.97 in 10.0 mi Calm Calm - N/A   Clear
8:35 AM 42.1 °F 40.2 °F 28.8 °F 59% 29.97 in 10.0 mi NW 3.5 mph - N/A   Clear
8:55 AM 43.7 °F 41.1 °F 29.8 °F 58% 29.97 in 10.0 mi NW 4.6 mph - N/A   Clear
9:15 AM 44.6 °F 40.2 °F 28.9 °F 54% 29.98 in 10.0 mi NW 8.1 mph - N/A   Clear
9:35 AM 45.9 °F 41.7 °F 30.0 °F 54% 29.99 in 10.0 mi NW 8.1 mph - N/A   Clear
9:55 AM 46.8 °F - 29.5 °F 51% 29.99 in 10.0 mi NW 8.1 mph - N/A   Clear
10:15 AM 47.8 °F - 29.3 °F 49% 30.00 in 10.0 mi NW 6.9 mph - N/A   Clear
10:35 AM 49.3 °F - 28.0 °F 44% 29.99 in 10.0 mi NNW 4.6 mph - N/A   Clear
10:55 AM 49.3 °F - 24.3 °F 38% 30.00 in 10.0 mi NW 11.5 mph 17.3 mph N/A   Clear
11:15 AM 49.5 °F - 22.6 °F 35% 30.00 in 10.0 mi NW 10.4 mph 21.9 mph N/A   Clear
11:35 AM 50.2 °F - 22.8 °F 34% 30.00 in 10.0 mi NW 9.2 mph - N/A   Clear
11:55 AM 51.1 °F - 19.0 °F 28% 30.01 in 10.0 mi NW 10.4 mph 19.6 mph N/A   Clear
12:15 PM 51.4 °F - 20.1 °F 29% 30.01 in 10.0 mi West 13.8 mph 18.4 mph N/A   Clear
12:35 PM 52.0 °F - 21.2 °F 30% 30.00 in 10.0 mi WNW 10.4 mph 16.1 mph N/A   Clear
12:55 PM 53.2 °F - 18.7 °F 26% 29.99 in 10.0 mi West 12.7 mph 17.3 mph N/A   Clear
1:15 PM 54.0 °F - 17.2 °F 24% 29.99 in 10.0 mi NW 12.7 mph 19.6 mph N/A   Clear
1:35 PM 55.2 °F - 17.6 °F 23% 29.99 in 10.0 mi WNW 13.8 mph 19.6 mph N/A   Clear
1:55 PM 54.9 °F - 16.9 °F 22% 29.97 in 10.0 mi West 8.1 mph 20.7 mph N/A   Clear
2:15 PM 54.9 °F - 17.4 °F 23% 29.96 in 10.0 mi WNW 13.8 mph 19.6 mph N/A   Clear
2:35 PM 56.5 °F - 18.7 °F 23% 29.95 in 10.0 mi WNW 9.2 mph - N/A   Clear
2:55 PM 55.2 °F - 17.1 °F 22% 29.95 in 10.0 mi WNW 9.2 mph 17.3 mph N/A   Clear
3:15 PM 56.7 °F - 17.2 °F 21% 29.94 in 10.0 mi WNW 9.2 mph 19.6 mph N/A   Clear
3:35 PM 57.7 °F - 15.8 °F 19% 29.94 in 10.0 mi WNW 12.7 mph 21.9 mph N/A   Clear
3:55 PM 59.4 °F - 15.4 °F 18% 29.92 in 10.0 mi West 13.8 mph 23.0 mph N/A   Clear
4:15 PM 58.5 °F - 14.2 °F 18% 29.93 in 10.0 mi West 6.9 mph 17.3 mph N/A   Clear
4:35 PM 59.2 °F - 13.5 °F 17% 29.92 in 10.0 mi West 10.4 mph 18.4 mph N/A   Clear
4:55 PM 59.4 °F - 14.4 °F 17% 29.92 in 10.0 mi WNW 6.9 mph 17.3 mph N/A   Clear
5:15 PM 59.7 °F - 13.5 °F 16% 29.92 in 10.0 mi WNW 10.4 mph 17.3 mph N/A   Clear
5:35 PM 59.9 °F - 13.8 °F 16% 29.92 in 10.0 mi NW 9.2 mph - N/A   Clear
5:55 PM 60.1 °F - 14.5 °F 17% 29.92 in 10.0 mi NW 5.8 mph - N/A   Clear
6:15 PM 59.5 °F - 13.8 °F 17% 29.92 in 10.0 mi NW 9.2 mph - N/A   Clear
6:35 PM 58.8 °F - 13.3 °F 17% 29.92 in 10.0 mi NW 6.9 mph - N/A   Clear
6:55 PM 58.1 °F - 13.1 °F 17% 29.93 in 10.0 mi WNW 6.9 mph - N/A   Clear
7:15 PM 56.8 °F - 13.1 °F 18% 29.93 in 10.0 mi NW 3.5 mph - N/A   Clear
7:35 PM 55.6 °F - 14.2 °F 20% 29.93 in 10.0 mi Calm Calm - N/A   Clear
7:55 PM 52.5 °F - 18.1 °F 26% 29.94 in 10.0 mi Calm Calm - N/A   Clear
8:15 PM 50.0 °F - 18.3 °F 29% 29.94 in 10.0 mi Calm Calm - N/A   Clear
8:35 PM 47.7 °F - 21.7 °F 36% 29.95 in 10.0 mi Calm Calm - N/A   Clear
8:55 PM 45.9 °F - 23.4 °F 41% 29.95 in 10.0 mi Calm Calm - N/A   Clear
9:15 PM 44.4 °F - 25.2 °F 47% 29.96 in 10.0 mi Calm Calm - N/A   Clear
9:35 PM 44.2 °F - 31.3 °F 60% 29.97 in 10.0 mi Calm Calm - N/A   Clear
9:55 PM 43.0 °F - 31.3 °F 63% 29.97 in 10.0 mi Calm Calm - N/A   Clear
10:15 PM 40.1 °F - 32.4 °F 74% 29.97 in 10.0 mi Calm Calm - N/A   Clear
10:35 PM 40.8 °F - 32.2 °F 71% 29.98 in 10.0 mi Calm Calm - N/A   Clear
10:55 PM 39.6 °F - 33.4 °F 79% 29.99 in 10.0 mi Calm Calm - N/A   Clear
11:15 PM 38.5 °F - 32.5 °F 79% 29.99 in 10.0 mi Calm Calm - N/A   Clear
11:35 PM 39.0 °F - 34.2 °F 83% 29.99 in 10.0 mi Calm Calm - N/A   Clear
11:55 PM 38.1 °F - 34.0 °F 85% 29.98 in 10.0 mi Calm Calm - N/A   Clear